Flag for U.S.A. Weather past 2 weeks in Macon, Georgia, U.S.A.

Now
66 °F

Overcast.


Feels Like: 66 °F
Forecast: 52 / 67 °F
Wind: 7 mph from West

Location: Middle Georgia Regional Airport

Current Time: Dec 28, 2014 at 2:28:34 PM

Latest Report: Dec 28, 2014 at 1:53 PM


Visibility: 10 mi

Pressure: 30.03 "Hg

Humidity: 96%

Dew point: 65 °F

Location of MaconLocation

Historic Weather in Macon — Graph

°F

Macon temperature yesterday

Maximum temperature yesterday: 66 °F (at 2:53 PM)
Minimum temperature yesterday: 32 °F (at 4:53 AM)
Average temperature yesterday: 49 °F

Past Weeks' High & Low Weather Summary

 TemperatureHumidityPressure
High71 °F (Dec 14, 2:53 PM)100% (Dec 14, 4:53 AM)30.36 "Hg (Dec 14, 4:53 AM)
Low28 °F (Dec 14, 6:53 AM)19% (Dec 13, 2:53 PM)29.66 "Hg (Dec 24, 3:53 PM)
Average49 °F81%30.09 "Hg
* Reported Dec 13 12:53 PM — Dec 28 12:53 PM, Macon, Weather by CustomWeather, © 2014

Note: Actual official high and low records may vary slightly from our data, if they occured in-between our weather recording intervals... More about our weather records

Advertising

Macon weather history for previous 24 hours

 ConditionsComfort  
Time TempWeatherWind HumidityBarometerVisibility
12:53 PM
Dec 28
66 °FLight rain. Overcast.8 mph93%30.06 "Hg9 mi
11:53 AM64 °FOvercast.7 mph97%30.08 "Hg10 mi
10:53 AM60 °FOvercast.No wind96%30.11 "Hg10 mi
9:53 AM58 °FPartly sunny.No wind100%30.11 "Hg8 mi
8:53 AM56 °FFog.No wind100%30.11 "Hg2 mi
7:53 AM55 °FFog.3 mph100%30.10 "Hg2 mi
7:04 AM54 °FFog.5 mph100%30.11 "Hg6 mi
6:53 AM54 °FMostly cloudy.5 mph100%30.10 "Hg7 mi
5:53 AM55 °FMostly cloudy.7 mph100%30.11 "Hg7 mi
4:53 AM55 °FFog.6 mph100%30.12 "Hg6 mi
3:53 AM56 °FMostly cloudy.No wind100%30.12 "Hg8 mi
2:53 AM55 °FOvercast.No wind100%30.11 "Hg10 mi
1:53 AM56 °FPassing clouds.3 mph97%30.11 "Hg10 mi
12:53 AM56 °FMostly cloudy.3 mph100%30.13 "Hg10 mi
11:53 PM
Dec 27
56 °FFog.No wind100%30.19 "Hg4 mi
10:53 PM56 °FLight rain. Fog.3 mph100%30.22 "Hg6 mi
9:53 PM56 °FLight rain. Fog.3 mph100%30.22 "Hg5 mi
8:53 PM56 °FLight rain. Fog.3 mph100%30.22 "Hg6 mi
7:53 PM57 °FLight rain. Passing clouds.No wind90%30.25 "Hg10 mi
6:53 PM60 °FMostly cloudy.No wind72%30.26 "Hg10 mi
5:53 PM61 °FPassing clouds.5 mph67%30.24 "Hg10 mi
4:53 PM64 °FSunny.No wind61%30.20 "Hg10 mi
3:53 PM65 °FSunny.No wind52%30.20 "Hg10 mi
2:53 PM66 °FSunny.No wind52%30.21 "Hg10 mi
Weather by CustomWeather, © 2014

See weather overviewHow to use our weather pages